[[{"header":{"parameterUnit":"m.s-1","parameterCategory":1,"la1":30.2991,"la2":30.254,"lo1":-89.0895,"lo2":-89.0444,"dy":0.0017,"dx":0.0017,"nx":28,"ny":28,"refTime":"2023-11-07T09:00:00:Z","depth":0,"parameterNumber":2,"parameterNumberName":"U-component_of_WINDS"},"data":[0,0,0,0,0,0,0,0,0,0,0,0,0,0,0,0,0,0,0,0,0,0,0,0,0,0,0,0,0,0,0,0,0,0,0,0,0,0,0,0,0,0,0,0,0,0,0,0,0,0,0,0,0,0,0,0,0,0,-0.1802,-0.1801,0,-0.1742,-0.1741,-0.1741,-0.1772,-0.1774,-0.1776,-0.1777,-0.1708,-0.1705,-0.1702,0,0,0,0,0,0,0,0,0,0,0,0,0,-0.1937,-0.1934,-0.1802,-0.1801,-0.18,-0.1742,-0.1741,-0.174,-0.1772,-0.1774,-0.1776,-0.1778,-0.171,-0.1706,-0.1702,0,0,0,0,0,0,0,0,0,0,0,0,0,-0.1877,-0.1933,-0.1802,-0.1809,-0.181,-0.1742,-0.1741,-0.174,-0.1772,-0.1774,-0.1777,-0.1779,-0.1711,-0.1706,-0.1701,-0.1621,0,0,-0.1686,-0.1683,0,0,0,0,0,0,0,0,-0.1881,-0.1872,-0.1809,-0.1809,-0.1809,-0.1767,-0.1764,-0.17,-0.1771,-0.1786,-0.1777,-0.178,-0.1726,-0.1719,-0.1703,-0.1617,-0.1615,-0.1685,-0.1682,-0.168,-0.1679,0,0,0,0,0,0,0,-0.1885,-0.1875,-0.1778,-0.1808,-0.1808,-0.1813,-0.1808,-0.1752,-0.1742,-0.1785,-0.1787,-0.178,-0.1726,-0.1707,-0.1701,-0.1613,-0.1685,-0.1681,-0.1678,-0.1676,-0.1457,-0.1454,0,0,0,0,0,0,-0.1889,-0.1878,-0.178,-0.1776,-0.1852,-0.1809,-0.1803,-0.1778,-0.1743,-0.174,-0.1778,-0.1782,-0.1715,-0.1707,-0.1699,-0.1601,-0.168,-0.1675,-0.1672,-0.146,-0.1456,-0.1453,0,0,0,0,0,0,-0.1892,-0.188,-0.1782,-0.1828,-0.1816,-0.1804,-0.1776,-0.1776,-0.1757,-0.1738,-0.1736,-0.1761,-0.1716,-0.1706,-0.164,-0.1599,-0.1673,-0.1668,-0.1463,-0.1459,-0.1455,-0.1405,0,0,0,0,0,0,-0.1896,-0.1881,-0.1852,-0.1827,-0.1813,-0.1726,-0.1774,-0.1773,-0.1749,-0.1754,-0.1722,-0.1719,-0.1718,-0.1647,-0.1635,-0.1593,-0.1664,-0.1466,-0.1461,-0.1456,-0.141,-0.1399,-0.139,0,0,0,0,0,-0.1901,-0.1839,-0.1851,-0.1839,-0.1777,-0.1724,-0.1716,-0.1718,-0.1746,-0.1715,-0.1703,-0.172,-0.1606,-0.164,-0.1627,-0.1583,-0.1469,-0.1463,-0.1456,-0.1414,-0.1401,-0.139,0,0,0,0,0,0,-0.1858,-0.1836,-0.1848,-0.1778,-0.1753,-0.173,-0.1691,-0.1705,-0.1669,-0.1674,-0.1676,-0.1669,-0.16,-0.1585,-0.1624,-0.1502,-0.1541,-0.1532,-0.1514,-0.1501,-0.1492,-0.1496,-0.166,0,0,0,0,0,-0.1841,-0.1801,-0.1784,-0.1723,-0.171,-0.1703,-0.168,-0.1684,-0.1657,-0.1645,-0.1628,-0.1599,-0.1557,-0.1529,-0.1489,-0.1409,-0.14,-0.1372,-0.1362,-0.1354,-0.1345,-0.1299,-0.1285,-0.1433,-0.1433,-0.1433,0,0,-0.1803,-0.1787,-0.1762,-0.1714,-0.1695,-0.1652,-0.1693,-0.1646,-0.1613,-0.1638,-0.1574,-0.156,-0.1528,-0.1454,-0.1421,-0.144,-0.1303,-0.1346,-0.134,-0.1335,-0.1291,-0.1277,-0.1264,-0.1428,-0.1429,-0.143,0,0,-0.1713,-0.1698,-0.1645,-0.1626,-0.1597,-0.1593,-0.158,-0.1555,-0.1547,-0.1484,-0.1501,-0.1461,-0.1389,-0.1364,-0.1343,-0.1243,-0.1256,-0.123,-0.1178,-0.1133,-0.1121,-0.1111,-0.1073,-0.1059,-0.1222,-0.1222,-0.1222,0,-0.167,-0.1608,-0.1615,-0.1567,-0.1544,-0.1567,-0.1511,-0.1491,-0.145,-0.1432,-0.1455,-0.1364,-0.1344,-0.1264,-0.124,-0.1222,-0.1205,-0.1233,-0.1123,-0.1112,-0.1103,-0.1066,-0.1052,-0.1219,-0.1219,-0.1219,-0.122,0,-0.1555,-0.1512,-0.1472,-0.1434,-0.1407,-0.1355,-0.1352,-0.1323,-0.1329,-0.1322,-0.1256,-0.1233,-0.1188,-0.117,-0.1175,-0.1089,-0.1102,-0.1124,-0.1163,-0.1085,-0.1051,-0.1037,-0.1214,-0.1215,-0.1216,-0.1217,0,0,-0.1435,-0.1402,-0.1387,-0.1369,-0.134,-0.1305,-0.1253,-0.1212,-0.1186,-0.1157,-0.1111,-0.1049,-0.1069,-0.1045,-0.1047,-0.1008,-0.0928,-0.1035,-0.1034,-0.1013,-0.0829,-0.0811,-0.0795,-0.0938,-0.0935,-0.0933,-0.0831,0,-0.1341,-0.1253,-0.1258,-0.1174,-0.1132,-0.1153,-0.1107,-0.1083,-0.1074,-0.1036,-0.1025,-0.0981,-0.1012,-0.0997,-0.0959,-0.0946,-0.089,-0.0953,-0.0892,-0.0889,-0.0897,-0.0777,-0.0758,-0.0663,-0.0818,-0.0815,-0.0814,0,-0.122,-0.1188,-0.1101,-0.1076,-0.1059,-0.1018,-0.098,-0.0944,-0.0915,-0.0912,-0.0884,-0.0893,-0.0837,-0.088,-0.0802,-0.0845,-0.082,-0.0809,-0.0806,-0.0798,-0.0845,-0.0763,-0.0633,-0.0617,-0.0793,-0.0795,-0.0796,0,-0.1138,-0.1074,-0.1013,-0.0997,-0.0968,-0.0938,-0.0924,-0.0898,-0.0873,-0.0838,-0.0821,-0.078,-0.0756,-0.0723,-0.0719,-0.0751,-0.0639,-0.0683,-0.0632,-0.0632,-0.0605,-0.0607,-0.0466,-0.0594,-0.0594,-0.0594,-0.0595,0,-0.1031,-0.0976,-0.0975,-0.0937,-0.0875,-0.0881,-0.0818,-0.0807,-0.0784,-0.0742,-0.0757,-0.0717,-0.0716,-0.0674,-0.0671,-0.0605,-0.0595,-0.0588,-0.0587,-0.0585,-0.0585,-0.0567,-0.0572,-0.0591,-0.0591,-0.0592,-0.0593,0,-0.0928,-0.0926,-0.086,-0.0838,-0.0831,-0.0786,-0.0766,-0.0729,-0.0722,-0.0669,-0.0656,-0.0645,-0.0596,-0.059,-0.0533,-0.0531,-0.0451,-0.0458,-0.0461,-0.0461,-0.041,-0.0414,-0.025,-0.0228,-0.0373,-0.0371,-0.037,0,-0.0859,-0.0817,-0.0791,-0.0765,-0.075,-0.0708,-0.0683,-0.0686,-0.0657,-0.0622,-0.0588,-0.0541,-0.0504,-0.0425,-0.041,-0.0365,-0.037,-0.0316,-0.0363,-0.0362,-0.0366,-0.0368,-0.0362,-0.0306,-0.0304,-0.0303,-0.0302,0,-0.0735,-0.0736,-0.07,-0.0662,-0.0632,-0.0602,-0.0574,-0.0551,-0.055,-0.0517,-0.0469,-0.0441,-0.0383,-0.0335,-0.0292,-0.0274,-0.0286,-0.0288,-0.0273,-0.0269,-0.0272,-0.0267,-0.0433,-0.0291,-0.0292,-0.0293,-0.0293,-0.0294,-0.0645,-0.0608,-0.0584,-0.0543,-0.0522,-0.0496,-0.0459,-0.0449,-0.0409,-0.0364,-0.0368,-0.0314,-0.0284,-0.0228,-0.0207,-0.0163,-0.018,-0.016,-0.0154,-0.0148,-0.0142,-0.0281,-0.0155,-0.0155,-0.0156,-0.0156,-0.0156,0,-0.052,-0.0506,-0.0468,-0.0429,-0.0395,-0.0414,-0.0383,-0.0353,-0.0306,-0.0279,-0.0243,-0.0186,-0.014,-0.0122,-0.0076,-0.0044,-0.0048,-0.0031,-0.0032,-0.0027,-0.0131,-0.0147,-0.0029,-0.0029,-0.0029,-0.0029,-0.0029,-0.0029,-0.0452,-0.039,-0.0388,-0.0315,-0.0301,-0.025,-0.023,-0.0205,-0.0183,-0.012,-0.0083,-0.0072,-0.0048,-0.0,0.0042,0.0047,0.0066,0.0086,0.0088,-0.0008,-0.0021,-0.0033,-0.0048,0.0089,0.0089,0.0188,0.0189,0.0189]},{"header":{"parameterUnit":"m.s-1","parameterCategory":1,"la1":30.2991,"la2":30.254,"lo1":-89.0895,"lo2":-89.0444,"dy":0.0017,"dx":0.0017,"nx":28,"ny":28,"refTime":"2023-11-07T09:00:00:Z","depth":0,"parameterNumber":3,"parameterNumberName":"V-component_of_WINDS"},"data":[0,0,0,0,0,0,0,0,0,0,0,0,0,0,0,0,0,0,0,0,0,0,0,0,0,0,0,0,0,0,0,0,0,0,0,0,0,0,0,0,0,0,0,0,0,0,0,0,0,0,0,0,0,0,0,0,0,0,2.1085,2.1085,0,2.1069,2.1069,2.1069,2.1009,2.1007,2.1006,2.1005,2.0988,2.0989,2.099,0,0,0,0,0,0,0,0,0,0,0,0,0,2.1063,2.1063,2.1085,2.1085,2.1084,2.1069,2.1069,2.1069,2.1009,2.1007,2.1006,2.1004,2.0988,2.0989,2.099,0,0,0,0,0,0,0,0,0,0,0,0,0,2.1062,2.1064,2.1085,2.1053,2.105,2.107,2.1069,2.1069,2.1009,2.1007,2.1005,2.1003,2.0988,2.0989,2.099,2.104,0,0,2.0994,2.0995,0,0,0,0,0,0,0,0,2.1062,2.1063,2.1058,2.1055,2.1052,2.1039,2.1055,2.1059,2.101,2.1025,2.1005,2.1002,2.1007,2.1006,2.1008,2.1039,2.1038,2.0994,2.0995,2.0996,2.0996,0,0,0,0,0,0,0,2.1063,2.1064,2.1079,2.1058,2.1054,2.1039,2.1037,2.1056,2.1028,2.1023,2.1019,2.1018,2.1005,2.1007,2.1007,2.1038,2.0994,2.0995,2.0996,2.0997,2.1111,2.1113,0,0,0,0,0,0,2.1067,2.1064,2.1079,2.1078,2.1052,2.1041,2.1039,2.1045,2.1027,2.1022,2.102,2.1015,2.1006,2.1006,2.1006,2.1065,2.0996,2.0997,2.0998,2.1109,2.1111,2.1114,0,0,0,0,0,0,2.1067,2.1069,2.108,2.107,2.107,2.1044,2.1052,2.1046,2.1048,2.1024,2.1019,2.1027,2.1004,2.1005,2.1032,2.1063,2.0997,2.0999,2.1106,2.111,2.1113,2.1181,0,0,0,0,0,0,2.1066,2.1069,2.1088,2.1071,2.1071,2.1106,2.1053,2.1047,2.105,2.1044,2.103,2.1026,2.1003,2.1031,2.1034,2.1064,2.1,2.1103,2.1108,2.1112,2.1175,2.1186,2.1195,0,0,0,0,0,2.1066,2.1107,2.1089,2.1091,2.1093,2.1108,2.1108,2.1081,2.1053,2.1072,2.1057,2.1026,2.1059,2.1034,2.1037,2.1068,2.1101,2.1106,2.1111,2.1171,2.1184,2.1195,0,0,0,0,0,0,2.1127,2.1104,2.1084,2.112,2.1117,2.1098,2.112,2.1095,2.1098,2.1093,2.1058,2.1056,2.1089,2.1081,2.1053,2.1116,2.1075,2.1081,2.112,2.1132,2.1141,2.1143,2.1001,0,0,0,0,0,2.1145,2.1159,2.1138,2.1172,2.1171,2.1146,2.1152,2.1131,2.1126,2.1124,2.1111,2.1107,2.1117,2.1123,2.1131,2.1174,2.1171,2.1197,2.1206,2.1214,2.122,2.1244,2.1256,2.1131,2.1131,2.113,0,0,2.1182,2.1171,2.1181,2.1184,2.1179,2.1195,2.1145,2.1163,2.1175,2.1126,2.1152,2.1143,2.1136,2.1173,2.1188,2.1167,2.1254,2.1221,2.1227,2.1229,2.125,2.1262,2.1273,2.1134,2.1133,2.1133,0,0,2.1257,2.125,2.1278,2.1274,2.1267,2.1251,2.1258,2.1243,2.1235,2.1261,2.1226,2.1239,2.1256,2.1253,2.1254,2.133,2.1303,2.1334,2.1384,2.1408,2.1418,2.1426,2.1455,2.1465,2.1339,2.1339,2.134,0,2.1303,2.1325,2.1296,2.1317,2.132,2.1278,2.1307,2.1305,2.1301,2.1304,2.128,2.1302,2.1294,2.133,2.1349,2.1351,2.1359,2.1335,2.1419,2.1427,2.1435,2.1461,2.1472,2.1343,2.1343,2.1343,2.1342,0,2.1383,2.14,2.1423,2.1422,2.1427,2.1452,2.1427,2.1436,2.1416,2.1402,2.143,2.1419,2.1425,2.1432,2.1411,2.1465,2.1453,2.1425,2.1383,2.1451,2.1476,2.1485,2.1349,2.1348,2.1346,2.1345,0,0,2.1495,2.1479,2.1488,2.1488,2.1478,2.149,2.1514,2.1519,2.1529,2.1528,2.1547,2.1563,2.1538,2.1539,2.1518,2.1539,2.1602,2.1508,2.1508,2.1527,2.1663,2.1684,2.1697,2.1584,2.1586,2.1587,2.1663,0,2.1568,2.1608,2.1583,2.1627,2.1642,2.1604,2.1624,2.1621,2.1609,2.1621,2.1607,2.162,2.1585,2.1585,2.1604,2.1591,2.1629,2.1585,2.1602,2.1603,2.1606,2.1709,2.1732,2.1804,2.1673,2.1674,2.1675,0,2.1657,2.1662,2.1708,2.1697,2.1702,2.1721,2.1726,2.1737,2.1733,2.1723,2.1726,2.17,2.1723,2.1683,2.1715,2.1685,2.1691,2.1686,2.1688,2.1689,2.1644,2.1714,2.1827,2.1838,2.169,2.1689,2.1688,0,2.1736,2.1753,2.1783,2.1784,2.1772,2.1786,2.1782,2.1776,2.1782,2.1786,2.1789,2.1796,2.1799,2.1805,2.1783,2.1755,2.1818,2.1775,2.1811,2.1812,2.1826,2.1826,2.1943,2.1829,2.1829,2.1829,2.1829,0,2.182,2.185,2.1819,2.1837,2.187,2.1842,2.1875,2.1866,2.1862,2.1878,2.1845,2.1861,2.183,2.1843,2.1826,2.1856,2.1857,2.185,2.1845,2.1854,2.1855,2.1857,2.1852,2.1832,2.1831,2.183,2.183,0,2.1913,2.1893,2.1924,2.1911,2.1908,2.1933,2.1921,2.1938,2.1925,2.1947,2.195,2.1929,2.1943,2.1921,2.1932,2.192,2.1963,2.1949,2.1964,2.1961,2.1998,2.1996,2.2121,2.2137,2.2013,2.2014,2.2015,0,2.1968,2.199,2.198,2.1989,2.1987,2.2002,2.2008,2.1982,2.199,2.1988,2.2006,2.2017,2.2025,2.205,2.2035,2.2044,2.2032,2.2075,2.2033,2.2041,2.2034,2.2033,2.2036,2.2084,2.2085,2.2087,2.2088,0,2.2068,2.2058,2.2068,2.2077,2.2086,2.209,2.2092,2.2102,2.2074,2.2085,2.21,2.2106,2.2118,2.2131,2.2136,2.2132,2.2106,2.2101,2.211,2.2119,2.2127,2.2125,2.1989,2.2098,2.2097,2.2097,2.2096,2.2096,2.2144,2.2163,2.216,2.2173,2.2173,2.2176,2.2192,2.2181,2.2193,2.2202,2.2185,2.2205,2.2201,2.2207,2.2205,2.222,2.2201,2.2214,2.2217,2.2221,2.2227,2.2125,2.2221,2.222,2.222,2.222,2.2219,0,2.2244,2.224,2.2253,2.2258,2.2269,2.2244,2.2246,2.2257,2.2275,2.2274,2.2283,2.2301,2.2313,2.2301,2.2311,2.2325,2.2313,2.2329,2.2328,2.2327,2.2243,2.2235,2.2338,2.2338,2.2338,2.2338,2.2338,2.2338,2.2297,2.2328,2.2318,2.2349,2.2344,2.2364,2.2367,2.2371,2.237,2.2392,2.2402,2.2394,2.2389,2.2399,2.241,2.2406,2.2411,2.2431,2.2423,2.2345,2.2333,2.2322,2.2314,2.2432,2.2432,2.2506,2.2507,2.2507]}]]